Tributaries of Vltava river

river Berounka - water gauge Beroun

Date and time (UTC) H (cm) Q (m3/s)
6. 8. 2020 17:20 109 25.9
6. 8. 2020 17:00 109 26
6. 8. 2020 16:00 108 25
6. 8. 2020 15:00 108 25
6. 8. 2020 14:00 109 26
6. 8. 2020 13:00 110 27
6. 8. 2020 12:00 110 27
6. 8. 2020 11:00 109 26
6. 8. 2020 10:00 110 27
6. 8. 2020 09:00 110 27
6. 8. 2020 08:00 110 27
6. 8. 2020 07:00 110 27
6. 8. 2020 06:00 110 27
6. 8. 2020 05:00 109 26

H - water level, Q - discharge

river Sázava - water gauge Nespeky

Date and time (UTC) H (cm) Q (m3/s)
6. 8. 2020 17:20 107 25.9
6. 8. 2020 17:00 107 26
6. 8. 2020 16:00 107 26
6. 8. 2020 15:00 107 26
6. 8. 2020 14:00 107 26
6. 8. 2020 13:00 107 26
6. 8. 2020 12:00 110 27
6. 8. 2020 11:00 111 28
6. 8. 2020 10:00 112 28
6. 8. 2020 09:00 112 28
6. 8. 2020 08:00 113 29
6. 8. 2020 07:00 114 29
6. 8. 2020 06:00 114 29
6. 8. 2020 05:00 114 29

H - water level, Q - discharge

river Otava - water gauge Písek

Date and time (UTC) H (cm) Q (m3/s)
6. 8. 2020 17:10 110 30.4
6. 8. 2020 17:00 110 30
6. 8. 2020 16:00 112 31
6. 8. 2020 15:00 111 31
6. 8. 2020 14:00 113 32
6. 8. 2020 13:00 119 35
6. 8. 2020 12:00 122 36
6. 8. 2020 11:00 125 38
6. 8. 2020 10:00 118 34
6. 8. 2020 09:00 115 33
6. 8. 2020 08:00 123 37
6. 8. 2020 07:00 124 37
6. 8. 2020 06:00 126 38
6. 8. 2020 05:00 129 40

H - water level, Q - discharge

river Lužnice - water gauge Bechyně

Date and time (UTC) H (cm) Q (m3/s)
6. 8. 2020 17:20 166 33.2
6. 8. 2020 17:00 159 30
6. 8. 2020 16:00 164 32
6. 8. 2020 15:00 163 32
6. 8. 2020 14:00 162 31
6. 8. 2020 13:00 161 31
6. 8. 2020 12:00 161 31
6. 8. 2020 11:00 161 31
6. 8. 2020 10:00 160 30
6. 8. 2020 09:00 160 30
6. 8. 2020 08:00 160 30
6. 8. 2020 07:00 160 30
6. 8. 2020 06:00 159 30
6. 8. 2020 05:00 160 30

H - water level, Q - discharge
Source data
Labe Basin Vltava Basin Povodí Moravy ČHMÚ